This demonstration page uses our WeatherBlox Daily Observations layout. Learn more.

40.92945, -100.16068

Hourly Observations for March 3, 2018

Temp ( °F °C ) Dew Point ( °F °C ) Humidity (%) Winds ( mph kmh ) Pressure ( in mb ) Visibility ( mi km ) Precip ( " mm )
12:15 am 00:15 Clear 46 7.6 27 -2.6 49 49 SE 15 24 29.94 1014 10 16.0934 0 0
12:35 am 00:35 Clear 45 7 28 -2.5 51 51 SSE 15 24 29.94 1014 10 16.0934 0 0
12:55 am 00:55 Clear 45 7.2 28 -2.5 50 50 SE 14 22 29.94 1014 10 16.0934 0 0
1:15 am 01:15 Clear 46 7.5 28 -2.3 50 50 SE 12 19 29.94 1014 10 16.0934 0 0
1:35 am 01:35 Clear 40 4.3 28 -2.5 62 62 E 9 15 29.97 1015 10 16.0934 0 0
1:55 am 01:55 Clear 43 6.1 28 -2 56 56 SE 14 22 29.94 1014 10 16.0934 0 0
2:15 am 02:15 Clear 42 5.8 28 -2.1 57 57 ESE 8 13 29.97 1015 10 16.0934 0 0
2:35 am 02:35 Clear 41 4.8 28 -2.2 61 61 SE 8 13 29.97 1015 10 16.0934 0 0
2:55 am 02:55 Clear 40 4.6 28 -2 63 63 ESE 9 15 29.94 1014 10 16.0934 0 0
3:15 am 03:15 Clear 39 4.1 28 -2 65 65 SE 8 13 29.94 1014 10 16.0934 0 0
3:35 am 03:35 Clear 39 3.9 28 -2 66 66 SE 8 13 29.94 1014 10 16.0934 0 0
3:55 am 03:55 Clear 38 3.2 28 -2.1 69 69 SE 7 11 29.94 1014 10 16.0934 0 0
4:15 am 04:15 Clear 37 2.6 28 -2.1 71 71 ESE 6 9 29.94 1014 10 16.0934 0 0
4:35 am 04:35 Clear 38 3.3 29 -1.7 70 70 SE 9 15 29.94 1014 10 16.0934 0 0
4:55 am 04:55 Clear 38 3.5 29 -1.6 70 70 ESE 9 15 29.91 1013 10 16.0934 0 0
5:15 am 05:15 Clear 38 3.2 29 -1.8 70 70 ESE 6 9 29.94 1014 10 16.0934 0 0
5:35 am 05:35 Clear 38 3.1 29 -1.5 72 72 SE 7 11 29.94 1014 10 16.0934 0 0
5:55 am 05:55 Clear 36 2.2 29 -1.9 75 75 SE 6 9 29.97 1015 10 16.0934 0 0
6:15 am 06:15 Clear 36 2.3 29 -1.9 74 74 SE 6 9 29.97 1015 10 16.0934 0 0
6:35 am 06:35 Clear 32 -0.1 27 -3 81 81 ESE 3 6 29.97 1015 10 16.0934 0 0
6:55 am 06:55 Clear 32 -0.2 27 -2.8 83 83 ESE 3 6 29.97 1015 10 16.0934 0 0
7:15 am 07:15 Sunny 30 -1 26 -3.1 86 86 ESE 3 6 30 1016 10 16.0934 0 0
7:35 am 07:35 Sunny 31 -0.6 27 -2.8 85 85 E 3 6 30 1016 10 16.0934 0 0
7:55 am 07:55 Sunny 32 0.2 29 -1.6 88 88 E 5 7 30 1016 10 16.0934 0 0
8:15 am 08:15 Sunny 35 1.9 31 -0.7 83 83 E 5 7 30 1016 10 16.0934 0 0
8:35 am 08:35 Sunny 39 3.7 31 -0.5 74 74 ESE 3 6 29.97 1015 10 16.0934 0 0
8:55 am 08:55 Sunny 41 4.8 31 -0.3 70 70 ESE 6 9 29.97 1015 10 16.0934 0 0
9:15 am 09:15 Sunny 42 5.5 32 -0.2 67 67 SE 5 7 29.97 1015 10 16.0934 0 0
9:35 am 09:35 Sunny 43 6.2 32 -0.1 64 64 SSE 5 7 29.94 1014 10 16.0934 0 0
9:55 am 09:55 Sunny 45 7.2 32 0 61 61 SE 5 7 29.94 1014 10 16.0934 0 0
10:15 am 10:15 Sunny 46 7.8 31 -0.3 57 57 SE 3 6 29.94 1014 10 16.0934 0 0
10:35 am 10:35 Sunny 48 9 31 -0.3 52 52 Calm 29.94 1014 10 16.0934 0 0
10:55 am 10:55 Sunny 49 9.7 31 -0.6 49 49 Calm 29.91 1013 10 16.0934 0 0
11:15 am 11:15 Sunny 51 10.4 31 -0.6 47 47 E 3 6 29.91 1013 10 16.0934 0 0
11:35 am 11:35 Sunny 53 11.4 30 -1.1 42 42 SE 5 7 29.91 1013 10 16.0934 0 0
11:55 am 11:55 Sunny 54 12 30 -1 41 41 SE 5 7 29.91 1013 10 16.0934 0 0
12:15 pm 12:15 Sunny 55 12.8 30 -1.2 38 38 SE 6 9 29.88 1012 10 16.0934 0 0
12:35 pm 12:35 Sunny 56 13.6 29 -1.7 35 35 SE 7 11 29.88 1012 10 16.0934 0 0
12:55 pm 12:55 Sunny 58 14.3 29 -1.9 33 33 SSE 10 17 29.85 1011 10 16.0934 0 0
1:15 pm 13:15 Sunny 60 15.3 29 -1.6 32 32 S 9 15 29.83 1010 10 16.0934 0 0
1:35 pm 13:35 Sunny 60 15.6 29 -1.9 30 30 S 13 20 29.83 1010 10 16.0934 0 0
1:55 pm 13:55 Sunny 62 16.5 28 -2.2 28 28 S 13 20 29.8 1009 10 16.0934 0 0
2:15 pm 14:15 Sunny 63 17.3 28 -2.2 27 27 SSE 12 19 29.8 1009 10 16.0934 0 0
2:35 pm 14:35 Sunny 64 17.9 28 -2.4 25 25 S 12 19 29.8 1009 10 16.0934 0 0
2:55 pm 14:55 Sunny 66 19 29 -1.8 25 25 S 14 22 29.77 1008 10 16.0934 0 0
3:15 pm 15:15 Sunny 67 19.5 28 -2.3 23 23 S 10 17 29.74 1007 10 16.0934 0 0
3:35 pm 15:35 Sunny 68 20 27 -2.7 22 22 S 15 24 29.74 1007 10 16.0934 0 0
3:55 pm 15:55 Sunny 69 20.6 28 -2.2 22 22 SSE 13 20 29.74 1007 10 16.0934 0 0
4:15 pm 16:15 Sunny 69 20.8 27 -2.9 20 20 S 6 9 29.74 1007 10 16.0934 0 0
4:35 pm 16:35 Sunny 70 21.1 26 -3.4 19 19 SE 3 6 29.74 1007 10 16.0934 0 0
4:55 pm 16:55 Sunny 71 21.5 26 -3.2 19 19 Calm 29.71 1006 10 16.0934 0 0
5:15 pm 17:15 Sunny 70 21.3 26 -3.5 19 19 Calm 29.74 1007 10 16.0934 0 0
5:35 pm 17:35 Sunny 71 21.4 30 -1.1 22 22 SE 7 11 29.74 1007 10 16.0934 0 0
5:55 pm 17:55 Sunny 68 19.9 33 0.5 27 27 SSE 3 6 29.74 1007 10 16.0934 0 0
6:15 pm 18:15 Sunny 63 17.4 33 0.4 32 32 Calm 29.77 1008 10 16.0934 0 0
6:35 pm 18:35 Clear 61 15.9 32 0.1 34 34 SE 3 6 29.77 1008 10 16.0934 0 0
6:55 pm 18:55 Clear 58 14.5 32 0.1 38 38 E 6 9 29.8 1009 10 16.0934 0 0
7:15 pm 19:15 Clear 54 12.1 32 0.1 44 44 E 6 9 29.8 1009 10 16.0934 0 0
7:35 pm 19:35 Clear 55 12.5 33 0.4 44 44 ESE 7 11 29.8 1009 10 16.0934 0 0
7:55 pm 19:55 Clear 55 12.6 34 1 45 45 ESE 7 11 29.8 1009 10 16.0934 0 0
8:15 pm 20:15 Clear 53 11.7 34 1.2 49 49 ESE 7 11 29.8 1009 10 16.0934 0 0
8:35 pm 20:35 Clear 55 12.5 36 2.1 49 49 ESE 9 15 29.8 1009 10 16.0934 0 0
8:55 pm 20:55 Clear 53 11.5 37 2.6 55 55 ESE 10 17 29.8 1009 10 16.0934 0 0
9:15 pm 21:15 Clear 49 9.4 37 2.8 64 64 E 8 13 29.83 1010 10 16.0934 0 0
9:35 pm 21:35 Clear 51 10.4 40 4.5 67 67 ESE 9 15 29.83 1010 10 16.0934 0 0
9:55 pm 21:55 Clear 51 10.4 41 5.2 70 70 ESE 10 17 29.83 1010 10 16.0934 0 0
10:15 pm 22:15 Clear 51 10.4 42 5.7 73 73 SE 13 20 29.83 1010 10 16.0934 0 0
10:35 pm 22:35 Clear 51 10.5 44 6.4 76 76 SE 12 19 29.83 1010 10 16.0934 0 0
10:55 pm 22:55 Clear 54 12 46 7.5 74 74 SE 15 24 29.8 1009 10 16.0934 0 0
11:15 pm 23:15 Clear 54 12.3 46 8 75 75 SE 16 26 29.8 1009 10 16.0934 0 0
11:35 pm 23:35 Clear 55 12.5 47 8.2 75 75 SE 17 28 29.8 1009 10 16.0934 0 0
11:55 pm 23:55 Clear 55 12.5 47 8.3 76 76 SE 15 24 29.77 1008 10 16.0934 0 0

Powered by AerisWeather